Year,Month,Day,Hour,Minute,Value (Times are PST for temperature in C)
2009,05,18,08,10,11.60
2009,05,18,08,11,11.60
2009,05,18,08,12,11.60
2009,05,18,08,13,11.70
2009,05,18,08,14,11.70
2009,05,18,08,15,11.70
2009,05,18,08,16,11.80
2009,05,18,08,17,11.70
2009,05,18,08,18,11.70
2009,05,18,08,19,11.70
2009,05,18,08,20,11.60
2009,05,18,08,21,11.60
2009,05,18,08,22,11.50
2009,05,18,08,23,11.50
2009,05,18,08,24,11.60
2009,05,18,08,25,11.60
2009,05,18,08,26,11.60
2009,05,18,08,27,11.60
2009,05,18,08,28,11.70
2009,05,18,08,29,11.70
2009,05,18,08,30,11.70
2009,05,18,08,31,11.80
2009,05,18,08,32,11.80
2009,05,18,08,33,11.70
2009,05,18,08,34,11.70
2009,05,18,08,35,11.70
2009,05,18,08,36,11.70
2009,05,18,08,37,11.70
2009,05,18,08,38,11.70
2009,05,18,08,39,11.70
2009,05,18,08,40,11.70
2009,05,18,08,41,11.70
2009,05,18,08,42,11.70
2009,05,18,08,43,11.70
2009,05,18,08,44,11.70
2009,05,18,08,45,11.80
2009,05,18,08,46,11.80
2009,05,18,08,47,11.80
2009,05,18,08,48,11.80
2009,05,18,08,49,11.80
2009,05,18,08,50,11.90
2009,05,18,08,51,11.90
2009,05,18,08,52,11.90
2009,05,18,08,53,11.90
2009,05,18,08,54,11.90
2009,05,18,08,55,11.90
2009,05,18,08,56,11.90
2009,05,18,08,57,11.90
2009,05,18,08,58,11.80
2009,05,18,08,59,11.80
2009,05,18,09,00,11.70
2009,05,18,09,01,11.70
2009,05,18,09,02,11.60
2009,05,18,09,03,11.60
2009,05,18,09,04,11.70
2009,05,18,09,05,11.70
2009,05,18,09,06,11.60
2009,05,18,09,07,11.60
2009,05,18,09,08,11.60
2009,05,18,09,09,11.60
2009,05,18,09,10,11.60
2009,05,18,09,11,11.60
2009,05,18,09,12,11.60
2009,05,18,09,13,11.70
2009,05,18,09,14,11.70
2009,05,18,09,15,11.70
2009,05,18,09,16,11.70
2009,05,18,09,17,11.70
2009,05,18,09,18,11.60
2009,05,18,09,19,11.60
2009,05,18,09,20,11.60
2009,05,18,09,21,11.60
2009,05,18,09,22,11.60
2009,05,18,09,23,11.60
2009,05,18,09,24,11.60
2009,05,18,09,25,11.60
2009,05,18,09,26,11.60
2009,05,18,09,27,11.70
2009,05,18,09,28,11.70
2009,05,18,09,29,11.70
2009,05,18,09,30,11.80
2009,05,18,09,31,11.90
2009,05,18,09,32,12.00
2009,05,18,09,33,12.00
2009,05,18,09,34,12.10
2009,05,18,09,35,12.20
2009,05,18,09,36,12.20
2009,05,18,09,37,12.20
2009,05,18,09,38,12.30
2009,05,18,09,39,12.30
2009,05,18,09,40,12.30
2009,05,18,09,41,12.30
2009,05,18,09,42,12.30
2009,05,18,09,43,12.30
2009,05,18,09,44,12.40
2009,05,18,09,45,12.40
2009,05,18,09,46,12.40
2009,05,18,09,47,12.40
2009,05,18,09,48,12.30
2009,05,18,09,49,12.30
2009,05,18,09,50,12.30
2009,05,18,09,51,12.30
2009,05,18,09,52,12.40
2009,05,18,09,53,12.40
2009,05,18,09,54,12.40
2009,05,18,09,55,12.50
2009,05,18,09,56,12.50
2009,05,18,09,57,12.60
2009,05,18,09,58,12.60
2009,05,18,09,59,12.70
2009,05,18,10,00,12.70
2009,05,18,10,01,12.80
2009,05,18,10,02,12.90
2009,05,18,10,03,12.90
2009,05,18,10,04,13.00
2009,05,18,10,05,13.00
2009,05,18,10,06,13.10
2009,05,18,10,07,13.10
2009,05,18,10,08,13.10
2009,05,18,10,09,13.10
2009,05,18,10,10,13.10
2009,05,18,10,11,13.00
2009,05,18,10,12,13.00
2009,05,18,10,13,12.90
2009,05,18,10,14,12.90
2009,05,18,10,15,12.90
2009,05,18,10,16,12.90
2009,05,18,10,17,13.00
2009,05,18,10,18,13.00
2009,05,18,10,19,13.00
2009,05,18,10,20,13.10
2009,05,18,10,21,13.10
2009,05,18,10,22,13.10
2009,05,18,10,23,13.20
2009,05,18,10,24,13.20
2009,05,18,10,25,13.20
2009,05,18,10,26,13.20
2009,05,18,10,27,13.20
2009,05,18,10,28,13.20
2009,05,18,10,29,13.20
2009,05,18,10,30,13.20
2009,05,18,10,31,13.20
2009,05,18,10,32,13.20
2009,05,18,10,33,13.20
2009,05,18,10,34,13.20
2009,05,18,10,35,13.30
2009,05,18,10,36,13.30
2009,05,18,10,37,13.40
2009,05,18,10,38,13.40
2009,05,18,10,39,13.40
2009,05,18,10,40,13.40
2009,05,18,10,41,13.30
2009,05,18,10,42,13.30
2009,05,18,10,43,13.30
2009,05,18,10,44,13.30
2009,05,18,10,45,13.40
2009,05,18,10,46,13.40
2009,05,18,10,47,13.40
2009,05,18,10,48,13.40
2009,05,18,10,49,13.40
2009,05,18,10,50,13.40
2009,05,18,10,51,13.50
2009,05,18,10,52,13.60
2009,05,18,10,53,13.60
2009,05,18,10,54,13.60
2009,05,18,10,55,13.60
2009,05,18,10,56,13.60
2009,05,18,10,57,13.60
2009,05,18,10,58,13.60
2009,05,18,10,59,13.50
2009,05,18,11,00,13.50
2009,05,18,11,01,13.40
2009,05,18,11,02,13.30
2009,05,18,11,03,13.20
2009,05,18,11,04,13.10
2009,05,18,11,05,13.00
2009,05,18,11,06,13.00
2009,05,18,11,07,12.90
2009,05,18,11,08,12.90
2009,05,18,11,09,12.90
2009,05,18,11,10,12.90
2009,05,18,11,11,12.80
2009,05,18,11,12,12.90
2009,05,18,11,13,12.90
2009,05,18,11,14,13.00
2009,05,18,11,15,13.00
2009,05,18,11,16,13.10
2009,05,18,11,17,13.10
2009,05,18,11,18,13.20
2009,05,18,11,19,13.20
2009,05,18,11,20,13.20
2009,05,18,11,21,13.20
2009,05,18,11,22,13.30
2009,05,18,11,23,13.30
2009,05,18,11,24,13.30
2009,05,18,11,25,13.40
2009,05,18,11,26,13.40
2009,05,18,11,27,13.50
2009,05,18,11,28,13.50
2009,05,18,11,29,13.60
2009,05,18,11,30,13.60
2009,05,18,11,31,13.70
2009,05,18,11,32,13.70
2009,05,18,11,33,13.70
2009,05,18,11,34,13.70
2009,05,18,11,35,13.70
2009,05,18,11,36,13.80
2009,05,18,11,37,13.90
2009,05,18,11,38,13.90
2009,05,18,11,39,14.00
2009,05,18,11,40,14.00
2009,05,18,11,41,14.00
2009,05,18,11,42,13.90
2009,05,18,11,43,13.90
2009,05,18,11,44,13.90
2009,05,18,11,45,13.90
2009,05,18,11,46,13.80
2009,05,18,11,47,13.80
2009,05,18,11,48,13.80
2009,05,18,11,49,13.80
2009,05,18,11,50,13.80
2009,05,18,11,51,13.80
2009,05,18,11,52,13.80
2009,05,18,11,53,13.70
2009,05,18,11,54,13.70
2009,05,18,11,55,13.70
2009,05,18,11,56,13.60
2009,05,18,11,57,13.50
2009,05,18,11,58,13.50
2009,05,18,11,59,13.50
2009,05,18,12,00,13.50
2009,05,18,12,01,13.50
2009,05,18,12,02,13.50
2009,05,18,12,03,13.50
2009,05,18,12,04,13.60
2009,05,18,12,05,13.50
2009,05,18,12,06,13.50
2009,05,18,12,07,13.50
2009,05,18,12,08,13.50
2009,05,18,12,09,13.50
2009,05,18,12,10,13.60
2009,05,18,12,11,13.70
2009,05,18,12,12,13.70
2009,05,18,12,13,13.70
2009,05,18,12,14,13.70
2009,05,18,12,15,13.80
2009,05,18,12,16,13.80
2009,05,18,12,17,13.80
2009,05,18,12,18,13.80
2009,05,18,12,19,13.80
2009,05,18,12,20,13.80
2009,05,18,12,21,13.70
2009,05,18,12,22,13.70
2009,05,18,12,23,13.70
2009,05,18,12,24,13.70
2009,05,18,12,25,13.60
2009,05,18,12,26,13.50
2009,05,18,12,27,13.50
2009,05,18,12,28,13.40
2009,05,18,12,29,13.40
2009,05,18,12,30,13.30
2009,05,18,12,31,13.30
2009,05,18,12,32,13.20
2009,05,18,12,33,13.10
2009,05,18,12,34,13.10
2009,05,18,12,35,13.10
2009,05,18,12,36,13.00
2009,05,18,12,37,13.00
2009,05,18,12,38,12.90
2009,05,18,12,39,12.90
2009,05,18,12,40,12.90
2009,05,18,12,41,12.90
2009,05,18,12,42,12.90
2009,05,18,12,43,13.00
2009,05,18,12,44,13.00
2009,05,18,12,45,13.00
2009,05,18,12,46,13.00
2009,05,18,12,47,12.90
2009,05,18,12,48,12.90
2009,05,18,12,49,12.90
2009,05,18,12,50,12.90
2009,05,18,12,51,12.90
2009,05,18,12,52,12.90
2009,05,18,12,53,12.90
2009,05,18,12,54,12.80
2009,05,18,12,55,12.80
2009,05,18,12,56,12.80
2009,05,18,12,57,12.80
2009,05,18,12,58,12.80
2009,05,18,12,59,12.80
2009,05,18,13,00,12.80
2009,05,18,13,01,12.80
2009,05,18,13,02,12.80
2009,05,18,13,03,12.80
2009,05,18,13,04,12.80
2009,05,18,13,05,12.80
2009,05,18,13,06,12.80
2009,05,18,13,07,12.90
2009,05,18,13,08,12.90
2009,05,18,13,09,12.90
2009,05,18,13,10,13.00
2009,05,18,13,11,13.00
2009,05,18,13,12,13.10
2009,05,18,13,13,13.10
2009,05,18,13,14,13.10
2009,05,18,13,15,13.10
2009,05,18,13,16,13.10
2009,05,18,13,17,13.10
2009,05,18,13,18,13.10
2009,05,18,13,19,13.10
2009,05,18,13,20,13.00
2009,05,18,13,21,13.00
2009,05,18,13,22,13.00
2009,05,18,13,23,13.00
2009,05,18,13,24,12.90
2009,05,18,13,25,13.00
2009,05,18,13,26,12.90
2009,05,18,13,27,12.90
2009,05,18,13,28,12.90
2009,05,18,13,29,12.90
2009,05,18,13,30,13.00
2009,05,18,13,31,13.00
2009,05,18,13,32,13.00
2009,05,18,13,33,13.00
2009,05,18,13,34,13.10
2009,05,18,13,35,13.10
2009,05,18,13,36,13.10
2009,05,18,13,37,13.20
2009,05,18,13,38,13.20
2009,05,18,13,39,13.20
2009,05,18,13,40,13.20
2009,05,18,13,41,13.20
2009,05,18,13,42,13.20
2009,05,18,13,43,13.20
2009,05,18,13,44,13.20
2009,05,18,13,45,13.20
2009,05,18,13,46,13.20
2009,05,18,13,47,13.20
2009,05,18,13,48,13.20
2009,05,18,13,49,13.20
2009,05,18,13,50,13.20
2009,05,18,13,51,13.20
2009,05,18,13,52,13.10
2009,05,18,13,53,13.10
2009,05,18,13,54,13.10
2009,05,18,13,55,13.00
2009,05,18,13,56,13.00
2009,05,18,13,57,13.00
2009,05,18,13,58,12.90
2009,05,18,13,59,12.90
2009,05,18,14,00,12.80
2009,05,18,14,01,12.80
2009,05,18,14,02,12.80
2009,05,18,14,03,12.80
2009,05,18,14,04,12.80
2009,05,18,14,05,12.80
2009,05,18,14,06,12.70
2009,05,18,14,07,12.70
2009,05,18,14,08,12.70
2009,05,18,14,09,12.70
2009,05,18,14,10,12.70
2009,05,18,14,11,12.80
2009,05,18,14,12,12.80
2009,05,18,14,13,12.70
2009,05,18,14,14,12.70
2009,05,18,14,15,12.70
2009,05,18,14,16,12.70
2009,05,18,14,17,12.60
2009,05,18,14,18,12.60
2009,05,18,14,19,12.50
2009,05,18,14,20,12.50
2009,05,18,14,21,12.40
2009,05,18,14,22,12.40
2009,05,18,14,23,12.40
2009,05,18,14,24,12.50
2009,05,18,14,25,12.50
2009,05,18,14,26,12.50
2009,05,18,14,27,12.50
2009,05,18,14,28,12.50
2009,05,18,14,29,12.50
2009,05,18,14,30,12.50
2009,05,18,14,31,12.50
2009,05,18,14,32,12.50
2009,05,18,14,33,12.50
2009,05,18,14,34,12.60
2009,05,18,14,35,12.60
2009,05,18,14,36,12.60
2009,05,18,14,37,12.60
2009,05,18,14,38,12.60
2009,05,18,14,39,12.70
2009,05,18,14,40,12.70
2009,05,18,14,41,12.70
2009,05,18,14,42,12.70
2009,05,18,14,43,12.70
2009,05,18,14,44,12.70
2009,05,18,14,45,12.70
2009,05,18,14,46,12.80
2009,05,18,14,47,12.80
2009,05,18,14,48,12.80
2009,05,18,14,49,12.80
2009,05,18,14,50,12.70
2009,05,18,14,51,12.70
2009,05,18,14,52,12.70
2009,05,18,14,53,12.70
2009,05,18,14,54,12.70
2009,05,18,14,55,12.70
2009,05,18,14,56,12.60
2009,05,18,14,57,12.60
2009,05,18,14,58,12.60
2009,05,18,14,59,12.60
2009,05,18,15,00,12.60
2009,05,18,15,01,12.60
2009,05,18,15,02,12.70
2009,05,18,15,03,12.70
2009,05,18,15,04,12.70
2009,05,18,15,05,12.70
2009,05,18,15,06,12.70
2009,05,18,15,07,12.70
2009,05,18,15,08,12.70
2009,05,18,15,09,12.70
2009,05,18,15,10,12.70
2009,05,18,15,11,12.70
2009,05,18,15,12,12.80
2009,05,18,15,13,12.80
2009,05,18,15,14,12.80
2009,05,18,15,15,12.80
2009,05,18,15,16,12.70
2009,05,18,15,17,12.70
2009,05,18,15,18,12.70
2009,05,18,15,19,12.60
2009,05,18,15,20,12.60
2009,05,18,15,21,12.60
2009,05,18,15,22,12.60
2009,05,18,15,23,12.60
2009,05,18,15,24,12.60
2009,05,18,15,25,12.70
2009,05,18,15,26,12.70
2009,05,18,15,27,12.70
2009,05,18,15,28,12.70
2009,05,18,15,29,12.60
2009,05,18,15,30,12.60
2009,05,18,15,31,12.60
2009,05,18,15,32,12.60
2009,05,18,15,33,12.60
2009,05,18,15,34,12.70
2009,05,18,15,35,12.70
2009,05,18,15,36,12.70
2009,05,18,15,37,12.70
2009,05,18,15,38,12.70
2009,05,18,15,39,12.70
2009,05,18,15,40,12.70
2009,05,18,15,41,12.70
2009,05,18,15,42,12.70
2009,05,18,15,43,12.70
2009,05,18,15,44,12.70
2009,05,18,15,45,12.70
2009,05,18,15,46,12.70
2009,05,18,15,47,12.70
2009,05,18,15,48,12.70
2009,05,18,15,49,12.60
2009,05,18,15,50,12.60
2009,05,18,15,51,12.60
2009,05,18,15,52,12.60
2009,05,18,15,53,12.50
2009,05,18,15,54,12.50
2009,05,18,15,55,12.40
2009,05,18,15,56,12.30
2009,05,18,15,57,12.30
2009,05,18,15,58,12.30
2009,05,18,15,59,12.30
2009,05,18,16,00,12.30
2009,05,18,16,01,12.30
2009,05,18,16,02,12.30
2009,05,18,16,03,12.20
2009,05,18,16,04,12.00
2009,05,18,16,05,12.00
2009,05,18,16,06,11.90
2009,05,18,16,07,11.90
2009,05,18,16,08,11.90
2009,05,18,16,09,11.90
2009,05,18,16,10,11.90
2009,05,18,16,11,11.80
2009,05,18,16,12,11.80
2009,05,18,16,13,11.80
2009,05,18,16,14,11.80
2009,05,18,16,15,11.70
2009,05,18,16,16,11.70
2009,05,18,16,17,11.70
2009,05,18,16,18,11.70
2009,05,18,16,19,11.60
2009,05,18,16,20,11.60
2009,05,18,16,21,11.60
2009,05,18,16,22,11.60
2009,05,18,16,23,11.60
2009,05,18,16,24,11.60
2009,05,18,16,25,11.50
2009,05,18,16,26,11.50
2009,05,18,16,27,11.40
2009,05,18,16,28,11.40
2009,05,18,16,29,11.30
2009,05,18,16,30,11.30
2009,05,18,16,31,11.30
2009,05,18,16,32,11.30
2009,05,18,16,33,11.30
2009,05,18,16,34,11.30
2009,05,18,16,35,11.30
2009,05,18,16,36,11.20
2009,05,18,16,37,11.30
2009,05,18,16,38,11.30
2009,05,18,16,39,11.20
2009,05,18,16,40,11.20
2009,05,18,16,41,11.20
2009,05,18,16,42,11.10
2009,05,18,16,43,11.00
2009,05,18,16,44,11.00
2009,05,18,16,45,10.90
2009,05,18,16,46,10.80
2009,05,18,16,47,10.80
2009,05,18,16,48,10.80
2009,05,18,16,49,10.80
2009,05,18,16,50,10.80
2009,05,18,16,51,10.80
2009,05,18,16,52,10.80
2009,05,18,16,53,10.80
2009,05,18,16,54,10.80
2009,05,18,16,55,10.80
2009,05,18,16,56,10.80
2009,05,18,16,57,10.80
2009,05,18,16,58,10.80
2009,05,18,16,59,10.80
2009,05,18,17,00,10.80
2009,05,18,17,01,10.80
2009,05,18,17,02,10.80
2009,05,18,17,03,10.80
2009,05,18,17,04,10.80
2009,05,18,17,05,10.70
2009,05,18,17,06,10.70
2009,05,18,17,07,10.70
2009,05,18,17,08,10.70
2009,05,18,17,09,10.60
2009,05,18,17,10,10.60
2009,05,18,17,11,10.60
2009,05,18,17,12,10.60
2009,05,18,17,13,10.60
2009,05,18,17,14,10.60
2009,05,18,17,15,10.60
2009,05,18,17,16,10.60
2009,05,18,17,17,10.60
2009,05,18,17,18,10.60
2009,05,18,17,19,10.60
2009,05,18,17,20,10.60
2009,05,18,17,21,10.60
2009,05,18,17,22,10.60
2009,05,18,17,23,10.60
2009,05,18,17,24,10.60
2009,05,18,17,25,10.60
2009,05,18,17,26,10.50
2009,05,18,17,27,10.40
2009,05,18,17,28,10.40
2009,05,18,17,29,10.30
2009,05,18,17,30,10.30
2009,05,18,17,31,10.30
2009,05,18,17,32,10.30
2009,05,18,17,33,10.20
2009,05,18,17,34,10.20
2009,05,18,17,35,10.10
2009,05,18,17,36,10.10
2009,05,18,17,37,10.00
2009,05,18,17,38,10.00
2009,05,18,17,39,9.90
2009,05,18,17,40,9.80
2009,05,18,17,41,9.80
2009,05,18,17,42,9.70
2009,05,18,17,43,9.70
2009,05,18,17,44,9.70
2009,05,18,17,45,9.70
2009,05,18,17,46,9.70
2009,05,18,17,47,9.70
2009,05,18,17,48,9.70
2009,05,18,17,49,9.70
2009,05,18,17,50,9.70
2009,05,18,17,51,9.70
2009,05,18,17,52,9.70
2009,05,18,17,53,9.70
2009,05,18,17,54,9.70
2009,05,18,17,55,9.70
2009,05,18,17,56,9.70
2009,05,18,17,57,9.70
2009,05,18,17,58,9.70
2009,05,18,17,59,9.70
2009,05,18,18,00,9.70
2009,05,18,18,01,9.70
2009,05,18,18,02,9.70
2009,05,18,18,03,9.70
2009,05,18,18,04,9.70
2009,05,18,18,05,9.60
2009,05,18,18,06,9.70
2009,05,18,18,07,9.70
2009,05,18,18,08,9.70
2009,05,18,18,09,9.70
2009,05,18,18,10,9.70
2009,05,18,18,11,9.60
2009,05,18,18,12,9.60
2009,05,18,18,13,9.60
2009,05,18,18,14,9.60
2009,05,18,18,15,9.60
2009,05,18,18,16,9.60
2009,05,18,18,17,9.60
2009,05,18,18,18,9.60
2009,05,18,18,19,9.60
2009,05,18,18,20,9.60
2009,05,18,18,21,9.60
2009,05,18,18,22,9.60
2009,05,18,18,23,9.60
2009,05,18,18,24,9.60
2009,05,18,18,25,9.60
2009,05,18,18,26,9.60
2009,05,18,18,27,9.60
2009,05,18,18,28,9.60
2009,05,18,18,29,9.60
2009,05,18,18,30,9.70
2009,05,18,18,31,9.70
2009,05,18,18,32,9.70
2009,05,18,18,33,9.70
2009,05,18,18,34,9.70
2009,05,18,18,35,9.70
2009,05,18,18,36,9.70
2009,05,18,18,37,9.70
2009,05,18,18,38,9.70
2009,05,18,18,39,9.60
2009,05,18,18,40,9.60
2009,05,18,18,41,9.70
2009,05,18,18,42,9.70
2009,05,18,18,43,9.70
2009,05,18,18,44,9.70
2009,05,18,18,45,9.70
2009,05,18,18,46,9.70
2009,05,18,18,47,9.70
2009,05,18,18,48,9.70
2009,05,18,18,49,9.70
2009,05,18,18,50,9.70
2009,05,18,18,51,9.70
2009,05,18,18,52,9.70
2009,05,18,18,53,9.70
2009,05,18,18,54,9.70
2009,05,18,18,55,9.70
2009,05,18,18,56,9.70
2009,05,18,18,57,9.70
2009,05,18,18,58,9.70
2009,05,18,18,59,9.70
2009,05,18,19,00,9.70
2009,05,18,19,01,9.80
2009,05,18,19,02,9.80
2009,05,18,19,03,9.80
2009,05,18,19,04,9.80
2009,05,18,19,05,9.80
2009,05,18,19,06,9.80
2009,05,18,19,07,9.80
2009,05,18,19,08,9.80
2009,05,18,19,09,9.80
2009,05,18,19,10,9.80
2009,05,18,19,11,9.80
2009,05,18,19,12,9.80
2009,05,18,19,13,9.80
2009,05,18,19,14,9.80
2009,05,18,19,15,9.80
2009,05,18,19,16,9.90
2009,05,18,19,17,9.90
2009,05,18,19,18,9.90
2009,05,18,19,19,9.90
2009,05,18,19,20,9.90
2009,05,18,19,21,9.90
2009,05,18,19,22,9.90
2009,05,18,19,23,9.80
2009,05,18,19,24,9.80
2009,05,18,19,25,9.80
2009,05,18,19,26,9.80
2009,05,18,19,27,9.80
2009,05,18,19,28,9.80
2009,05,18,19,29,9.70
2009,05,18,19,30,9.70
2009,05,18,19,31,9.70
2009,05,18,19,32,9.70
2009,05,18,19,33,9.70
2009,05,18,19,34,9.70
2009,05,18,19,35,9.70
2009,05,18,19,36,9.70
2009,05,18,19,37,9.60
2009,05,18,19,38,9.60
2009,05,18,19,39,9.60
2009,05,18,19,40,9.60
2009,05,18,19,41,9.60
2009,05,18,19,42,9.60
2009,05,18,19,43,9.60
2009,05,18,19,44,9.60
2009,05,18,19,45,9.60
2009,05,18,19,46,9.60
2009,05,18,19,47,9.60
2009,05,18,19,48,9.60
2009,05,18,19,49,9.60
2009,05,18,19,50,9.60
2009,05,18,19,51,9.60
2009,05,18,19,52,9.50
2009,05,18,19,53,9.50
2009,05,18,19,54,9.60
2009,05,18,19,55,9.60
2009,05,18,19,56,9.60
2009,05,18,19,57,9.60
2009,05,18,19,58,9.70
2009,05,18,19,59,9.70
2009,05,18,20,00,9.70
2009,05,18,20,01,9.70
2009,05,18,20,02,9.80
2009,05,18,20,03,9.80
2009,05,18,20,04,9.80
2009,05,18,20,05,9.80
2009,05,18,20,06,9.70
2009,05,18,20,07,9.70
2009,05,18,20,08,9.70
2009,05,18,20,09,9.70
2009,05,18,20,10,9.70
2009,05,18,20,11,9.70
2009,05,18,20,12,9.70
2009,05,18,20,13,9.70
2009,05,18,20,14,9.70
2009,05,18,20,15,9.70
2009,05,18,20,16,9.70
2009,05,18,20,17,9.70
2009,05,18,20,18,9.60
2009,05,18,20,19,9.60
2009,05,18,20,20,9.60
2009,05,18,20,21,9.60
2009,05,18,20,22,9.50
2009,05,18,20,23,9.50
2009,05,18,20,24,9.40
2009,05,18,20,25,9.40
2009,05,18,20,26,9.40
2009,05,18,20,27,9.40
2009,05,18,20,28,9.30
2009,05,18,20,29,9.30
2009,05,18,20,30,9.30
2009,05,18,20,31,9.30
2009,05,18,20,32,9.20
2009,05,18,20,33,9.20
2009,05,18,20,34,9.20
2009,05,18,20,35,9.20
2009,05,18,20,36,9.20
2009,05,18,20,37,9.30
2009,05,18,20,38,9.30
2009,05,18,20,39,9.30
2009,05,18,20,40,9.20
2009,05,18,20,41,9.20
2009,05,18,20,42,9.20
2009,05,18,20,43,9.20
2009,05,18,20,44,9.20
2009,05,18,20,45,9.20
2009,05,18,20,46,9.20
2009,05,18,20,47,9.20
2009,05,18,20,48,9.20
2009,05,18,20,49,9.10
2009,05,18,20,50,9.20
2009,05,18,20,51,9.20
2009,05,18,20,52,9.20
2009,05,18,20,53,9.10
2009,05,18,20,54,9.10
2009,05,18,20,55,9.10
2009,05,18,20,56,9.10
2009,05,18,20,57,9.10
2009,05,18,20,58,9.10
2009,05,18,20,59,9.00
2009,05,18,21,00,9.00
2009,05,18,21,01,8.90
2009,05,18,21,02,8.90
2009,05,18,21,03,8.90
2009,05,18,21,04,8.90
2009,05,18,21,05,8.80
2009,05,18,21,06,8.80
2009,05,18,21,07,8.80
2009,05,18,21,08,8.80
2009,05,18,21,09,8.80
2009,05,18,21,10,8.80
2009,05,18,21,11,8.80
2009,05,18,21,12,8.80
2009,05,18,21,13,8.80
2009,05,18,21,14,8.80
2009,05,18,21,15,8.80
2009,05,18,21,16,8.80
2009,05,18,21,17,8.80
2009,05,18,21,18,8.80
2009,05,18,21,19,8.80
2009,05,18,21,20,8.80
2009,05,18,21,21,8.80
2009,05,18,21,22,8.80
2009,05,18,21,23,8.80
2009,05,18,21,24,8.80
2009,05,18,21,25,8.80
2009,05,18,21,26,8.80
2009,05,18,21,27,8.80
2009,05,18,21,28,8.80
2009,05,18,21,29,8.80
2009,05,18,21,30,8.80
2009,05,18,21,31,8.80
2009,05,18,21,32,8.80
2009,05,18,21,33,8.80
2009,05,18,21,34,8.80
2009,05,18,21,35,8.70
2009,05,18,21,36,8.70
2009,05,18,21,37,8.70
2009,05,18,21,38,8.70
2009,05,18,21,39,8.70
2009,05,18,21,40,8.70
2009,05,18,21,41,8.70
2009,05,18,21,42,8.70
2009,05,18,21,43,8.70
2009,05,18,21,44,8.70
2009,05,18,21,45,8.70
2009,05,18,21,46,8.60
2009,05,18,21,47,8.60
2009,05,18,21,48,8.60
2009,05,18,21,49,8.60
2009,05,18,21,50,8.60
2009,05,18,21,51,8.60
2009,05,18,21,52,8.60
2009,05,18,21,53,8.60
2009,05,18,21,54,8.60
2009,05,18,21,55,8.60
2009,05,18,21,56,8.60
2009,05,18,21,57,8.60
2009,05,18,21,58,8.60
2009,05,18,21,59,8.60
2009,05,18,22,00,8.50
2009,05,18,22,01,8.50
2009,05,18,22,02,8.50
2009,05,18,22,03,8.50
2009,05,18,22,04,8.60
2009,05,18,22,05,8.60
2009,05,18,22,06,8.60
2009,05,18,22,07,8.70
2009,05,18,22,08,8.70
2009,05,18,22,09,8.70
2009,05,18,22,10,8.80
2009,05,18,22,11,8.80
2009,05,18,22,12,8.80
2009,05,18,22,13,8.80
2009,05,18,22,14,8.80
2009,05,18,22,15,8.80
2009,05,18,22,16,8.80
2009,05,18,22,17,8.80
2009,05,18,22,18,8.80
2009,05,18,22,19,8.80
2009,05,18,22,20,8.80
2009,05,18,22,21,8.70
2009,05,18,22,22,8.70
2009,05,18,22,23,8.70
2009,05,18,22,24,8.70
2009,05,18,22,25,8.70
2009,05,18,22,26,8.70
2009,05,18,22,27,8.70
2009,05,18,22,28,8.70
2009,05,18,22,29,8.60
2009,05,18,22,30,8.70
2009,05,18,22,31,8.70
2009,05,18,22,32,8.60
2009,05,18,22,33,8.70
2009,05,18,22,34,8.70
2009,05,18,22,35,8.70
2009,05,18,22,36,8.70
2009,05,18,22,37,8.80
2009,05,18,22,38,8.80
2009,05,18,22,39,8.80
2009,05,18,22,40,8.80
2009,05,18,22,41,8.80
2009,05,18,22,42,8.80
2009,05,18,22,43,8.80
2009,05,18,22,44,8.80
2009,05,18,22,45,8.80
2009,05,18,22,46,8.80
2009,05,18,22,47,8.80
2009,05,18,22,48,8.90
2009,05,18,22,49,8.90
2009,05,18,22,50,8.90
2009,05,18,22,51,8.90
2009,05,18,22,52,8.90
2009,05,18,22,53,8.90
2009,05,18,22,54,8.90
2009,05,18,22,55,8.90
2009,05,18,22,56,8.90
2009,05,18,22,57,8.90
2009,05,18,22,58,8.90
2009,05,18,22,59,8.90
2009,05,18,23,00,8.90
2009,05,18,23,01,8.90
2009,05,18,23,02,8.90
2009,05,18,23,03,8.80
2009,05,18,23,04,8.80
2009,05,18,23,05,8.80
2009,05,18,23,06,8.70
2009,05,18,23,07,8.70
2009,05,18,23,08,8.70
2009,05,18,23,09,8.70
2009,05,18,23,10,8.70
2009,05,18,23,11,8.70
2009,05,18,23,12,8.70
2009,05,18,23,13,8.60
2009,05,18,23,14,8.60
2009,05,18,23,15,8.60
2009,05,18,23,16,8.60
2009,05,18,23,17,8.70
2009,05,18,23,18,8.80
2009,05,18,23,19,8.90
2009,05,18,23,20,8.90
2009,05,18,23,21,9.00
2009,05,18,23,22,9.00
2009,05,18,23,23,9.10
2009,05,18,23,24,9.20
2009,05,18,23,25,9.20
2009,05,18,23,26,9.20
2009,05,18,23,27,9.20
2009,05,18,23,28,9.20
2009,05,18,23,29,9.20
2009,05,18,23,30,9.10
2009,05,18,23,31,9.20
2009,05,18,23,32,9.20
2009,05,18,23,33,9.20
2009,05,18,23,34,9.20
2009,05,18,23,35,9.20
2009,05,18,23,36,9.20
2009,05,18,23,37,9.20
2009,05,18,23,38,9.20
2009,05,18,23,39,9.10
2009,05,18,23,40,9.20
2009,05,18,23,41,9.20
2009,05,18,23,42,9.20
2009,05,18,23,43,9.20
2009,05,18,23,44,9.20
2009,05,18,23,45,9.20
2009,05,18,23,46,9.20
2009,05,18,23,47,9.10
2009,05,18,23,48,9.10
2009,05,18,23,49,9.10
2009,05,18,23,50,9.10
2009,05,18,23,51,9.10
2009,05,18,23,52,9.10
2009,05,18,23,53,9.10
2009,05,18,23,54,9.10
2009,05,18,23,55,9.10
2009,05,18,23,56,9.10
2009,05,18,23,57,9.20
2009,05,18,23,58,9.20
2009,05,18,23,59,9.20
